TimeIST,TemperatureF,Dew PointF,Humidity,Sea Level PressureIn,VisibilityMPH,Wind Direction,Wind SpeedMPH,Gust SpeedMPH,PrecipitationIn,Events,Conditions,WindDirDegrees,DateUTC
12:10 AM,80.6,77.0,89,29.59,2.2,SW,5.8,-,N/A,,Haze,220,2013-07-20 18:40:00
12:40 AM,80.6,77.0,89,29.59,2.2,SW,5.8,-,N/A,,Haze,220,2013-07-20 19:10:00
1:10 AM,80.6,77.0,89,29.59,2.2,SSW,6.9,-,N/A,,Haze,210,2013-07-20 19:40:00
1:40 AM,80.6,77.0,89,29.56,2.2,SSW,6.9,-,N/A,,Haze,210,2013-07-20 20:10:00
2:10 AM,80.6,77.0,89,29.56,2.2,SSW,5.8,-,N/A,,Haze,210,2013-07-20 20:40:00
2:30 AM,80,77,89,29.55,1,SW,4.6,,,,Mist,230,2013-07-20 21:00:00
2:40 AM,80.6,77.0,89,29.53,2.2,SSW,5.8,-,N/A,,Haze,210,2013-07-20 21:10:00
3:10 AM,80.6,77.0,89,29.53,2.2,SSW,5.8,-,N/A,,Haze,210,2013-07-20 21:40:00
3:40 AM,80.6,77.0,89,29.53,2.2,SSW,5.8,-,N/A,,Haze,200,2013-07-20 22:10:00
4:40 AM,80.6,77.0,89,29.53,1.9,SW,3.5,-,N/A,,Haze,220,2013-07-20 23:10:00
5:10 AM,78.8,77.0,94,29.53,1.9,SW,3.5,-,N/A,,Haze,220,2013-07-20 23:40:00
5:30 AM,80,77,88,,1,SW,4.6,,,,Mist,230,2013-07-21 00:00:00
5:40 AM,78.8,77.0,94,29.53,1.9,SW,3.5,-,N/A,,Haze,220,2013-07-21 00:10:00
6:10 AM,78.8,77.0,94,29.53,1.9,SSW,3.5,-,N/A,,Haze,210,2013-07-21 00:40:00
6:40 AM,78.8,77.0,94,29.53,1.9,SW,3.5,-,N/A,,Haze,220,2013-07-21 01:10:00
7:10 AM,78.8,77.0,94,29.56,1.9,SW,3.5,-,N/A,,Haze,220,2013-07-21 01:40:00
7:40 AM,78.8,77.0,94,29.56,1.9,WSW,3.5,-,N/A,,Haze,240,2013-07-21 02:10:00
8:10 AM,80.6,78.8,94,29.56,1.9,Variable,2.3,-,N/A,,Haze,0,2013-07-21 02:40:00
8:30 AM,82,78,83,29.57,1,SW,3.5,,,,Mist,230,2013-07-21 03:00:00
8:40 AM,82.4,78.8,89,29.59,1.9,Variable,2.3,-,N/A,,Haze,0,2013-07-21 03:10:00
9:10 AM,82.4,78.8,89,29.59,1.9,Variable,2.3,-,N/A,,Haze,0,2013-07-21 03:40:00
9:40 AM,82.4,78.8,89,29.59,1.9,West,3.5,-,N/A,,Haze,270,2013-07-21 04:10:00
10:10 AM,84.2,77.0,79,29.56,2.2,West,3.5,-,N/A,,Haze,260,2013-07-21 04:40:00
10:40 AM,86.0,78.8,79,29.56,2.5,WSW,3.5,-,N/A,,Haze,250,2013-07-21 05:10:00
11:10 AM,87.8,78.8,75,29.56,2.5,West,3.5,-,N/A,,Haze,270,2013-07-21 05:40:00
11:30 AM,88,78,66,29.59,2,SW,4.6,,,,Haze,230,2013-07-21 06:00:00
12:10 PM,89.6,78.8,70,29.53,3.1,WSW,4.6,-,N/A,,Haze,250,2013-07-21 06:40:00
12:40 PM,91.4,80.6,71,29.53,3.1,WSW,3.5,-,N/A,,Haze,250,2013-07-21 07:10:00
1:10 PM,91.4,78.8,66,29.50,3.1,West,4.6,-,N/A,,Haze,260,2013-07-21 07:40:00
1:40 PM,91.4,80.6,71,29.50,3.1,WSW,5.8,-,N/A,,Haze,240,2013-07-21 08:10:00
2:10 PM,91.4,80.6,71,29.47,3.7,WSW,3.5,-,N/A,,Scattered Clouds,250,2013-07-21 08:40:00
2:30 PM,91,79,60,29.49,2,SW,3.5,,,,Haze,230,2013-07-21 09:00:00
2:40 PM,93.2,80.6,67,29.47,3.7,West,6.9,-,N/A,,Scattered Clouds,270,2013-07-21 09:10:00
3:10 PM,95.0,80.6,63,29.44,3.7,WSW,4.6,-,N/A,,Scattered Clouds,240,2013-07-21 09:40:00
3:40 PM,95.0,80.6,63,29.44,3.7,North,3.5,-,N/A,,Scattered Clouds,350,2013-07-21 10:10:00
4:10 PM,95.0,80.6,63,29.42,3.7,West,3.5,-,N/A,,Scattered Clouds,280,2013-07-21 10:40:00
4:40 PM,95.0,78.8,59,29.42,3.7,NW,4.6,-,N/A,,Scattered Clouds,310,2013-07-21 11:10:00
5:10 PM,95.0,80.6,63,29.42,3.7,West,5.8,-,N/A,,Scattered Clouds,280,2013-07-21 11:40:00
5:30 PM,94,80,56,29.44,2,SW,3.5,,,,Haze,230,2013-07-21 12:00:00
5:40 PM,93.2,78.8,63,29.42,3.7,WSW,9.2,-,N/A,,Scattered Clouds,240,2013-07-21 12:10:00
6:10 PM,86.0,78.8,79,29.44,3.7,SSW,9.2,20.7,N/A,,Scattered Clouds,210,2013-07-21 12:40:00
6:40 PM,86.0,78.8,79,29.44,3.7,SW,8.1,19.6,N/A,,Partly Cloudy,230,2013-07-21 13:10:00
7:40 PM,82.4,78.8,89,29.47,2.5,SW,8.1,-,N/A,,Haze,220,2013-07-21 14:10:00
8:10 PM,84.2,78.8,84,29.47,2.5,SW,8.1,-,N/A,,Haze,220,2013-07-21 14:40:00
8:30 PM,83,78,82,29.49,2,SW,5.8,,,,Mist,230,2013-07-21 15:00:00
8:40 PM,84.2,77.0,79,29.50,2.5,SW,10.4,-,N/A,,Haze,230,2013-07-21 15:10:00
9:10 PM,82.4,78.8,89,29.50,2.5,SW,9.2,-,N/A,,Haze,230,2013-07-21 15:40:00
10:10 PM,82.4,78.8,89,29.53,2.5,SW,9.2,-,N/A,,Haze,230,2013-07-21 16:40:00
10:40 PM,82.4,78.8,89,29.53,2.5,SW,9.2,-,N/A,,Haze,230,2013-07-21 17:10:00
11:10 PM,82.4,78.8,89,29.53,2.5,SW,6.9,-,N/A,,Haze,230,2013-07-21 17:40:00
11:30 PM,83,79,83,29.53,2,SW,6.9,,,,Mist,230,2013-07-21 18:00:00
11:40 PM,82.4,78.8,89,29.53,2.5,WSW,9.2,-,N/A,,Haze,240,2013-07-21 18:10:00